Simultaneous Nadir Overpasses (SNOs) Predictions

Prediction of SNOs between METOP-B and TERRA Satellite Orbit:

Table of predicted SNOs for the next 14.0 days since TLE Epoch: 7/14/2018
Index Date (METOP-B) Time (METOP-B) Lat,Lon (METOP-B) SZA (METOP-B ) Date (TERRA) Time (TERRA) Lat,Lon (TERRA) SZA (TERRA ) Distance(km) Time Diff (sec)
1 07/14/2018 06:10:54 81.35, 135.37 62.51 07/14/2018 06:11:22 81.34, 135.23 62.51 2.56 28
2 07/14/2018 07:01:33 -81.36, -56.76 117.42 07/14/2018 07:00:48 -81.36, -56.78 117.44 0.56 45
3 07/17/2018 01:45:13 81.36,-157.90 62.99 07/17/2018 01:45:36 81.36,-157.97 63.00 1.43 23
4 07/17/2018 02:35:53 -81.36, 9.60 116.99 07/17/2018 02:35:03 -81.36, 9.64 117.01 0.87 50
5 07/19/2018 21:19:32 81.36, -91.58 63.47 07/19/2018 21:19:50 81.36, -91.63 63.47 0.85 18
6 07/19/2018 22:10:12 -81.36, 75.94 116.51 07/19/2018 22:09:17 -81.36, 76.01 116.53 1.16 55
7 07/22/2018 16:53:52 81.36, -25.28 63.99 07/22/2018 16:54:05 81.35, -25.35 63.98 1.28 13
8 07/22/2018 17:44:32 -81.36, 142.26 115.98 07/22/2018 17:43:32 -81.35, 142.30 116.01 1.00 60
9 07/25/2018 12:28:11 81.36, 41.40 64.60 07/25/2018 12:28:19 81.36, 41.25 64.59 2.43 8




NCC Satellite Simultaneous Nadir Overpasses (SNOs) Prediction Service
